TimeHST,TemperatureF,Dew PointF,Humidity,Sea Level PressureIn,VisibilityMPH,Wind Direction,Wind SpeedMPH,Gust SpeedMPH,PrecipitationIn,Events,Conditions,WindDirDegrees,DateUTC
12:13 AM,75.2,68.0,78,30.06,10.0,WNW,4.6,-,N/A,,Mostly Cloudy,300,2013-04-17 10:13:00
12:53 AM,75.9,68.0,76,30.06,10.0,NNW,3.5,-,N/A,,Overcast,330,2013-04-17 10:53:00
1:18 AM,75.2,66.2,73,30.05,10.0,NE,3.5,-,N/A,,Partly Cloudy,40,2013-04-17 11:18:00
1:53 AM,73.9,64.9,73,30.04,10.0,ESE,5.8,-,N/A,,Scattered Clouds,120,2013-04-17 11:53:00
2:53 AM,75.0,64.9,71,30.02,10.0,ESE,6.9,-,N/A,,Mostly Cloudy,120,2013-04-17 12:53:00
3:06 AM,75.2,64.4,69,30.02,10.0,ESE,4.6,-,N/A,,Overcast,120,2013-04-17 13:06:00
3:17 AM,75.2,66.2,73,30.02,10.0,ESE,4.6,-,N/A,,Overcast,120,2013-04-17 13:17:00
3:40 AM,75.2,64.4,69,30.02,10.0,Calm,Calm,-,N/A,,Overcast,0,2013-04-17 13:40:00
3:53 AM,75.0,64.9,71,30.02,10.0,SE,3.5,-,N/A,,Overcast,130,2013-04-17 13:53:00
4:20 AM,73.4,64.4,73,30.03,10.0,SE,5.8,-,N/A,,Scattered Clouds,140,2013-04-17 14:20:00
4:53 AM,73.9,64.9,73,30.04,10.0,ESE,5.8,-,N/A,,Scattered Clouds,110,2013-04-17 14:53:00
5:53 AM,73.0,64.0,73,30.05,10.0,ESE,4.6,-,N/A,,Clear,110,2013-04-17 15:53:00
6:53 AM,73.9,64.9,73,30.07,10.0,East,3.5,-,N/A,,Clear,100,2013-04-17 16:53:00
7:53 AM,77.0,66.9,71,30.09,10.0,South,4.6,-,N/A,,Clear,180,2013-04-17 17:53:00
8:53 AM,78.1,66.9,68,30.10,10.0,SSW,4.6,-,N/A,,Mostly Cloudy,200,2013-04-17 18:53:00
9:53 AM,79.0,68.0,69,30.10,10.0,SW,8.1,-,N/A,,Overcast,220,2013-04-17 19:53:00
10:53 AM,81.0,66.0,60,30.10,10.0,West,5.8,-,N/A,,Mostly Cloudy,260,2013-04-17 20:53:00
11:53 AM,81.0,69.1,67,30.09,10.0,SSW,9.2,-,N/A,,Overcast,200,2013-04-17 21:53:00
12:53 PM,82.0,68.0,62,30.08,10.0,SSW,9.2,-,N/A,,Scattered Clouds,200,2013-04-17 22:53:00
1:53 PM,81.0,68.0,65,30.05,10.0,Variable,5.8,-,N/A,,Mostly Cloudy,0,2013-04-17 23:53:00
2:53 PM,82.0,66.9,60,30.04,10.0,South,10.4,-,N/A,,Partly Cloudy,180,2013-04-18 00:53:00
3:53 PM,81.0,68.0,65,30.03,10.0,SSW,10.4,-,N/A,,Mostly Cloudy,200,2013-04-18 01:53:00
4:53 PM,81.0,68.0,65,30.03,10.0,South,11.5,-,N/A,,Partly Cloudy,190,2013-04-18 02:53:00
5:53 PM,80.1,66.9,64,30.05,10.0,South,13.8,-,N/A,,Scattered Clouds,190,2013-04-18 03:53:00
6:53 PM,79.0,66.9,66,30.06,10.0,South,9.2,-,N/A,,Clear,180,2013-04-18 04:53:00
7:53 PM,78.1,68.0,71,30.09,10.0,South,5.8,-,N/A,,Mostly Cloudy,170,2013-04-18 05:53:00
8:49 PM,78.8,68.0,69,30.11,10.0,West,3.5,-,N/A,,Scattered Clouds,280,2013-04-18 06:49:00
8:53 PM,78.1,68.0,71,30.11,10.0,Calm,Calm,-,N/A,,Mostly Cloudy,0,2013-04-18 06:53:00
9:09 PM,77.0,66.2,69,30.11,10.0,Calm,Calm,-,N/A,,Scattered Clouds,0,2013-04-18 07:09:00
9:53 PM,77.0,59.0,54,30.11,10.0,NNE,8.1,-,N/A,,Clear,30,2013-04-18 07:53:00
10:53 PM,75.9,60.1,58,30.11,10.0,NE,5.8,-,N/A,,Clear,40,2013-04-18 08:53:00
11:53 PM,75.0,60.1,60,30.10,10.0,ESE,3.5,-,N/A,,Clear,120,2013-04-18 09:53:00